CZ-6A DEB, 61279

Orbit data source: Space-Track

CZ-6A DEB, 61279 is space debris in LEO originally from a launch on Tue, 06 Aug 2024 UTC launched from the Taiyaun Space Center, China (TSC). Debris objects in space refer to the collection of defunct objects orbiting the Earth. Examples of debris include non-operational satellites, rocket bodies, and fragments generated from explosions, collisions, or faulty payload assembly.

Loading next visibility...
Identifier
61279, 2024-140SQ
Orbit
LEO
Country
Flag of CNCN / PRC
Related business
Manufacturer
SAST
Mission
Spacecraft
Bus & Motor
Unknown
Mass
Unknown
Launch date (UTC)
2024-08-06 (2 years ago)
Launch vehicle
Unknown
Launch site
Taiyaun Space Center, China (TSC)
Object type
Payload
Rocket body
Debris
Shape & HBR
Unknown shape, 0.1 m
Radar Cross Section
Medium (>0.1 m² and <1 m²)

Expand to show TLE details & history
Last TLE update: 11 hours ago

TLE from 11 hours ago
0 CZ-6A DEB
1 61279U 24140SQ  26171.39582091  .00001587  00000-0  76768-3 0  9998
2 61279  89.3735 304.3662 0068701 184.2309 175.8308 14.16870805 93661
Epoch: 2026-06-20T09:29Z
TLE epoch observation values (Epoch: 2026-06-20T09:29:58.926Z)
Latitude
-0.00003°
Longitude
-106.74038°
Altitude
888.447 km
Speed
7.382 km/s
True Right ascension
20h 17m 27s
True Declination
0° 00' 00"
Sunlit
Object was in full shadow at epoch
Visualization orbit readout
Latitude
Unknown
Longitude
Unknown
Altitude
Unknown
Speed
Unknown
Apparent Right ascension
Unknown
Apparent Declination
Unknown
Sunlit
N/A
Visualization observer readout
Local Sidereal Time
07:22:35
Azimuth
Unknown
Elevation
Unknown
Doppler factor
Unknown
Orbital elements
Apogee altitude
882.449 km
Perigee altitude
783.368 km
Semi-major axis
7,211.046 km
Eccentricity
0.00687
Inclination
89.3735°
RAAN
304.3662°
Arg. of periapsis
184.2309°
True anomaly
175.88755°
Mean anomaly
175.8308°
Eccentric anomaly
175.85922°
Mean motion
3.54443 °/min
Orbital period
101.57 mins
BSTAR
0.00076768
Loading maneuver chart data...
Computing Atmospheric mass density...
Loading historical data...
Loading historical data...
Loading historical data...
Loading historical data...
Loading historical data...
Loading historical data...
Loading historical data...

Documentation

Showing up to 5 results
|